Location: Peterborough
(44.3091°N, 78.3197°W)
Time: 06:12:14
(UTC-04:00)

A-11 Canister half - Pass Details

Date: 22 March 2023
Orbit: 1513 x 1686 km, 47.2° (Epoch: 04 June)

Event Time Altitude Azimuth Distance (km) Brightness Sun altitude
Rises 22:03:49 0° 208° (SSW) 4,787 11.6 -27.3°
Reaches altitude 10° 22:07:08 10° 201° (SSW) 3,829 10.9 -27.8°
Enters shadow 22:12:02 29° 178° (S) 2,654 9.9 -28.5°
